Simultaneous Nadir Overpasses (SNOs) Predictions

Prediction of SNOs between GOES-16 and TERRA Satellite Orbit:

Table of predicted SNOs for the next 14.0 days since TLE Epoch: 2/5/2022
Index Date Time (GOES-16) GOES-16 Lat,Lon TERRA Lat,Lon Distance(km) Time Diff (sec)
1 02/07/2022 03:07:30 -0.03, -75.18 0.73, -71.58 409.07 80
2 02/07/2022 15:31:25 0.03, -75.20 0.34, -76.75 175.25 80
3 02/09/2022 15:16:30 0.03, -75.21 -0.27, -73.79 161.61 80
4 02/10/2022 03:40:33 -0.03, -75.19 -0.85, -78.97 430.32 80
5 02/11/2022 15:04:15 0.02, -75.22 -0.90, -70.83 498.83 80
6 02/12/2022 03:28:18 -0.03, -75.20 -0.22, -76.02 93.03 80
7 02/14/2022 03:13:23 -0.03, -75.21 0.42, -73.06 244.90 80
8 02/14/2022 15:37:17 0.03, -75.23 0.65, -78.22 339.22 80
9 02/16/2022 15:25:02 0.03, -75.25 0.06, -75.25 3.16 80
10 02/18/2022 15:12:47 0.03, -75.28 -0.60, -72.30 339.04 80
